| time (UTC) | temp C | wind direction | speed KPH | gust KPH | rain 1hr cm | rain 24hr cm | rain mn cm | humidity % | barometer mb |
| 20260507160313 | 31 | 23 | 3.2 | 22.5 | 0.00 | 0.00 | 0.00 | 68 | 1000.5 |
| 20260507155817 | 30 | 58 | 6.4 | 19.3 | 0.00 | 0.00 | 0.00 | 68 | 1000.6 |
| 20260507155313 | 31 | 34 | 9.7 | 27.4 | 0.00 | 0.00 | 0.00 | 67 | 1000.9 |
| 20260507154816 | 31 | 37 | 12.9 | 27.4 | 0.00 | 0.00 | 0.00 | 66 | 1001.0 |
| 20260507153816 | 31 | 39 | 8.0 | 20.9 | 0.00 | 0.00 | 0.00 | 68 | 1001.2 |
| 20260507153313 | 31 | 6 | 11.3 | 22.5 | 0.00 | 0.00 | 0.00 | 68 | 1001.0 |
| 20260507152817 | 30 | 68 | 14.5 | 22.5 | 0.00 | 0.00 | 0.00 | 69 | 1001.1 |
| 20260507152312 | 30 | 8 | 14.5 | 22.5 | 0.00 | 0.00 | 0.00 | 68 | 1001.4 |
| 20260507151816 | 31 | 25 | 9.7 | 19.3 | 0.00 | 0.00 | 0.00 | 67 | 1001.3 |
| 20260507151313 | 31 | 49 | 6.4 | 24.1 | 0.00 | 0.00 | 0.00 | 68 | 1001.4 |
| 20260507150816 | 31 | 51 | 12.9 | 24.1 | 0.00 | 0.00 | 0.00 | 67 | 1001.5 |
| 20260507150311 | 31 | 55 | 8.0 | 17.7 | 0.00 | 0.00 | 0.00 | 66 | 1001.3 |
| 20260507145815 | 30 | 76 | 9.7 | 17.7 | 0.00 | 0.00 | 0.00 | 67 | 1001.4 |
| 20260507145312 | 30 | 68 | 9.7 | 16.1 | 0.00 | 0.00 | 0.00 | 69 | 1001.5 |
| 20260507144816 | 30 | 79 | 6.4 | 17.7 | 0.00 | 0.00 | 0.00 | 69 | 1001.8 |
| 20260507144312 | 30 | 45 | 9.7 | 20.9 | 0.00 | 0.00 | 0.00 | 69 | 1001.8 |
| 20260507143814 | 30 | 80 | 8.0 | 20.9 | 0.00 | 0.00 | 0.00 | 71 | 1001.7 |
| 20260507143312 | 29 | 51 | 6.4 | 17.7 | 0.00 | 0.00 | 0.00 | 72 | 1001.6 |
| 20260507142815 | 29 | 61 | 4.8 | 19.3 | 0.00 | 0.00 | 0.00 | 73 | 1001.7 |
| 20260507142311 | 29 | 39 | 9.7 | 20.9 | 0.00 | 0.00 | 0.00 | 71 | 1001.9 |
| 20260507141814 | 29 | 48 | 12.9 | 20.9 | 0.00 | 0.00 | 0.00 | 71 | 1001.9 |
| 20260507140814 | 29 | 99 | 8.0 | 22.5 | 0.00 | 0.00 | 0.00 | 70 | 1001.8 |
| 20260507140311 | 29 | 90 | 1.6 | 14.5 | 0.00 | 0.00 | 0.00 | 72 | 1001.9 |
| 20260507133812 | 28 | 93 | 8.0 | 19.3 | 0.00 | 0.00 | 0.00 | 74 | 1001.9 |
| 20260507133310 | 28 | 71 | 8.0 | 17.7 | 0.00 | 0.00 | 0.00 | 74 | 1001.9 |
| 20260507131813 | 27 | 85 | 8.0 | 17.7 | 0.00 | 0.00 | 0.00 | 79 | 1001.9 |
| 20260507131310 | 27 | 58 | 4.8 | 17.7 | 0.00 | 0.00 | 0.00 | 79 | 1002.0 |
| 20260507130813 | 27 | 94 | 3.2 | 17.7 | 0.00 | 0.00 | 0.00 | 79 | 1002.0 |
| 20260507130322 | 27 | 99 | 9.7 | 17.7 | 0.00 | 0.00 | 0.00 | 77 | 1001.9 |
| 20260507125811 | 27 | 80 | 3.2 | 19.3 | 0.00 | 0.00 | 0.00 | 78 | 1002.0 |
| 20260507125310 | 28 | 65 | 9.7 | 19.3 | 0.00 | 0.00 | 0.00 | 77 | 1002.0 |
| 20260507124812 | 28 | 49 | 11.3 | 20.9 | 0.00 | 0.00 | 0.00 | 77 | 1001.9 |
| 20260507124309 | 27 | 52 | 9.7 | 20.9 | 0.00 | 0.00 | 0.00 | 76 | 1002.0 |
| 20260507123310 | 27 | 89 | 8.0 | 16.1 | 0.00 | 0.00 | 0.00 | 77 | 1001.9 |
| 20260507122812 | 27 | 83 | 6.4 | 17.7 | 0.00 | 0.00 | 0.00 | 77 | 1001.8 |
| 20260507122308 | 27 | 59 | 9.7 | 17.7 | 0.00 | 0.00 | 0.00 | 78 | 1001.8 |
| 20260507121810 | 27 | 99 | 8.0 | 17.7 | 0.00 | 0.00 | 0.00 | 79 | 1001.8 |
| 20260507121308 | 27 | 89 | 4.8 | 14.5 | 0.00 | 0.00 | 0.00 | 79 | 1001.8 |
| 20260507120321 | 27 | 62 | 0.0 | 14.5 | 0.00 | 0.00 | 0.00 | 79 | 1001.8 |
| 20260507115811 | 26 | 62 | 1.6 | 11.3 | 0.00 | 0.00 | 0.00 | 80 | 1001.7 |
| 20260507115307 | 26 | 71 | 4.8 | 9.7 | 0.00 | 0.00 | 0.00 | 80 | 1001.6 |
| 20260507114811 | 26 | 71 | 0.0 | 11.3 | 0.00 | 0.00 | 0.00 | 81 | 1001.5 |
| 20260507114307 | 26 | 71 | 1.6 | 11.3 | 0.00 | 0.00 | 0.00 | 81 | 1001.4 |
| 20260507113809 | 26 | 72 | 3.2 | 9.7 | 0.00 | 0.00 | 0.00 | 82 | 1001.5 |
| 20260507113307 | 26 | 72 | 0.0 | 9.7 | 0.00 | 0.00 | 0.00 | 83 | 1001.4 |
| 20260507112808 | 25 | 72 | 3.2 | 9.7 | 0.00 | 0.00 | 0.00 | 83 | 1001.2 |
| 20260507112307 | 25 | 72 | 3.2 | 9.7 | 0.00 | 0.00 | 0.00 | 83 | 1001.1 |
| 20260507111810 | 25 | 72 | 1.6 | 9.7 | 0.00 | 0.00 | 0.00 | 84 | 1001.0 |
| 20260507111307 | 25 | 72 | 1.6 | 8.0 | 0.00 | 0.00 | 0.00 | 84 | 1001.0 |
| 20260507110823 | 25 | 72 | 3.2 | 8.0 | 0.00 | 0.00 | 0.00 | 84 | 1000.9 |
| 20260507110319 | 25 | 72 | 4.8 | 8.0 | 0.00 | 0.00 | 0.00 | 84 | 1001.0 |
| 20260507105810 | 25 | 72 | 0.0 | 8.0 | 0.00 | 0.00 | 0.00 | 84 | 1000.9 |
| 20260507105307 | 25 | 73 | 0.0 | 8.0 | 0.00 | 0.00 | 0.00 | 84 | 1000.9 |
| 20260507104307 | 24 | 73 | 0.0 | 8.0 | 0.00 | 0.00 | 0.00 | 84 | 1000.7 |
| 20260507103810 | 24 | 73 | 1.6 | 8.0 | 0.00 | 0.00 | 0.00 | 84 | 1000.6 |
| 20260507103306 | 24 | 73 | 3.2 | 8.0 | 0.00 | 0.00 | 0.00 | 84 | 1000.6 |
| 20260507102813 | 24 | 69 | 0.0 | 9.7 | 0.00 | 0.00 | 0.00 | 84 | 1000.5 |
| 20260507101809 | 24 | 66 | 0.0 | 8.0 | 0.00 | 0.00 | 0.00 | 84 | 1000.5 |
| 20260507101305 | 24 | 66 | 0.0 | 9.7 | 0.00 | 0.00 | 0.00 | 84 | 1000.6 |
| 20260507100806 | 24 | 65 | 1.6 | 9.7 | 0.00 | 0.00 | 0.00 | 84 | 1000.5 |
| 20260507100305 | 24 | 65 | 0.0 | 8.0 | 0.00 | 0.00 | 0.00 | 84 | 1000.5 |
| 20260507095806 | 24 | 65 | 0.0 | 9.7 | 0.00 | 0.00 | 0.00 | 84 | 1000.5 |
| 20260507095306 | 24 | 65 | 3.2 | 9.7 | 0.00 | 0.00 | 0.00 | 84 | 1000.6 |
| 20260507094808 | 24 | 65 | 0.0 | 6.4 | 0.00 | 0.00 | 0.00 | 84 | 1000.5 |
| 20260507094307 | 24 | 65 | 0.0 | 8.0 | 0.00 | 0.00 | 0.00 | 84 | 1000.6 |
| 20260507092808 | 25 | 62 | 0.0 | 8.0 | 0.00 | 0.00 | 0.00 | 84 | 1000.5 |
| 20260507092307 | 25 | 62 | 1.6 | 8.0 | 0.00 | 0.00 | 0.00 | 84 | 1000.5 |
| 20260507091807 | 25 | 62 | 0.0 | 8.0 | 0.00 | 0.00 | 0.00 | 84 | 1000.4 |
| 20260507090808 | 25 | 62 | 1.6 | 8.0 | 0.00 | 0.00 | 0.00 | 84 | 1000.5 |
| 20260507090304 | 25 | 62 | 0.0 | 6.4 | 0.00 | 0.00 | 0.00 | 84 | 1000.4 |
| 20260507085808 | 25 | 62 | 0.0 | 6.4 | 0.00 | 0.00 | 0.00 | 84 | 1000.4 |
| 20260507085306 | 25 | 62 | 0.0 | 6.4 | 0.00 | 0.00 | 0.00 | 84 | 1000.4 |
| 20260507084806 | 25 | 62 | 1.6 | 8.0 | 0.00 | 0.00 | 0.00 | 84 | 1000.3 |
| 20260507084304 | 25 | 62 | 3.2 | 8.0 | 0.00 | 0.00 | 0.00 | 84 | 1000.3 |
| 20260507083807 | 25 | 62 | 1.6 | 8.0 | 0.00 | 0.00 | 0.00 | 84 | 1000.2 |
| 20260507083303 | 25 | 62 | 1.6 | 11.3 | 0.00 | 0.00 | 0.00 | 84 | 1000.3 |
| 20260507081806 | 25 | 66 | 3.2 | 11.3 | 0.00 | 0.00 | 0.00 | 84 | 1000.2 |
| 20260507081303 | 25 | 68 | 3.2 | 11.3 | 0.00 | 0.00 | 0.00 | 84 | 1000.1 |
| 20260507080806 | 25 | 68 | 1.6 | 11.3 | 0.00 | 0.00 | 0.00 | 84 | 1000.1 |
| 20260507075306 | 25 | 68 | 1.6 | 9.7 | 0.00 | 0.00 | 0.00 | 84 | 1000.2 |
| 20260507074806 | 25 | 68 | 1.6 | 14.5 | 0.00 | 0.00 | 0.00 | 84 | 1000.1 |
| 20260507074302 | 25 | 68 | 3.2 | 14.5 | 0.00 | 0.00 | 0.00 | 84 | 1000.1 |
| 20260507073806 | 25 | 72 | 6.4 | 11.3 | 0.00 | 0.00 | 0.00 | 84 | 1000.2 |
| 20260507072805 | 25 | 61 | 3.2 | 16.1 | 0.00 | 0.00 | 0.00 | 84 | 1000.2 |
| 20260507072306 | 25 | 69 | 8.0 | 16.1 | 0.00 | 0.00 | 0.00 | 84 | 1000.1 |
| 20260507071807 | 25 | 72 | 1.6 | 16.1 | 0.00 | 0.00 | 0.00 | 84 | 1000.1 |
| 20260507071302 | 25 | 76 | 4.8 | 16.1 | 0.00 | 0.00 | 0.00 | 84 | 1000.1 |
| 20260507070805 | 25 | 80 | 4.8 | 14.5 | 0.00 | 0.00 | 0.00 | 84 | 1000.2 |
| 20260507070302 | 25 | 87 | 3.2 | 14.5 | 0.00 | 0.00 | 0.00 | 84 | 1000.2 |
| 20260507065817 | 25 | 76 | 8.0 | 16.1 | 0.00 | 0.00 | 0.00 | 84 | 1000.3 |
| 20260507065305 | 25 | 62 | 4.8 | 16.1 | 0.00 | 0.00 | 0.00 | 84 | 1000.3 |
| 20260507064804 | 25 | 72 | 6.4 | 16.1 | 0.00 | 0.00 | 0.00 | 83 | 1000.3 |
| 20260507063805 | 25 | 69 | 8.0 | 14.5 | 0.00 | 0.00 | 0.00 | 83 | 1000.5 |
| 20260507063301 | 25 | 65 | 8.0 | 14.5 | 0.00 | 0.00 | 0.00 | 83 | 1000.5 |
| 20260507062804 | 25 | 68 | 8.0 | 14.5 | 0.00 | 0.00 | 0.00 | 83 | 1000.5 |
| 20260507062301 | 25 | 61 | 3.2 | 16.1 | 0.00 | 0.00 | 0.00 | 83 | 1000.6 |
| 20260507061804 | 25 | 62 | 6.4 | 16.1 | 0.00 | 0.00 | 0.00 | 83 | 1000.8 |
| 20260507061300 | 25 | 75 | 3.2 | 14.5 | 0.00 | 0.00 | 0.00 | 83 | 1000.7 |
| 20260507060804 | 25 | 66 | 6.4 | 14.5 | 0.00 | 0.00 | 0.00 | 83 | 1000.8 |
| 20260507060300 | 25 | 62 | 3.2 | 9.7 | 0.00 | 0.00 | 0.00 | 83 | 1000.8 |
| 20260507055803 | 25 | 65 | 1.6 | 11.3 | 0.00 | 0.00 | 0.00 | 83 | 1000.9 |
| 20260507055300 | 25 | 66 | 3.2 | 11.3 | 0.00 | 0.00 | 0.00 | 83 | 1000.9 |
| 20260507054803 | 25 | 68 | 1.6 | 11.3 | 0.00 | 0.00 | 0.00 | 83 | 1001.0 |
| 20260507054301 | 25 | 66 | 1.6 | 11.3 | 0.00 | 0.00 | 0.00 | 83 | 1001.1 |
| 20260507053803 | 25 | 68 | 3.2 | 11.3 | 0.00 | 0.00 | 0.00 | 83 | 1001.1 |
| 20260507053259 | 25 | 69 | 1.6 | 11.3 | 0.00 | 0.00 | 0.00 | 83 | 1001.2 |
| 20260507052804 | 25 | 66 | 4.8 | 11.3 | 0.00 | 0.00 | 0.00 | 83 | 1001.0 |
| 20260507052300 | 25 | 78 | 1.6 | 9.7 | 0.00 | 0.00 | 0.00 | 83 | 1001.2 |
| 20260507051803 | 25 | 78 | 3.2 | 11.3 | 0.00 | 0.00 | 0.00 | 83 | 1001.2 |
| 20260507051259 | 25 | 78 | 3.2 | 11.3 | 0.00 | 0.00 | 0.00 | 83 | 1001.2 |
| 20260507050804 | 25 | 79 | 3.2 | 9.7 | 0.00 | 0.00 | 0.00 | 83 | 1001.3 |
| 20260507050259 | 25 | 80 | 1.6 | 11.3 | 0.00 | 0.00 | 0.00 | 83 | 1001.3 |
| 20260507045802 | 25 | 80 | 4.8 | 11.3 | 0.00 | 0.00 | 0.00 | 83 | 1001.4 |
| 20260507045259 | 25 | 80 | 3.2 | 9.7 | 0.00 | 0.00 | 0.00 | 83 | 1001.4 |
| 20260507044802 | 25 | 85 | 3.2 | 11.3 | 0.00 | 0.00 | 0.00 | 83 | 1001.5 |
| 20260507044259 | 25 | 87 | 4.8 | 11.3 | 0.00 | 0.00 | 0.00 | 83 | 1001.7 |
| 20260507043801 | 25 | 86 | 1.6 | 16.1 | 0.00 | 0.00 | 0.00 | 83 | 1001.6 |
| 20260507042802 | 25 | 82 | 0.0 | 14.5 | 0.00 | 0.00 | 0.00 | 83 | 1001.7 |
| 20260507042259 | 25 | 87 | 4.8 | 14.5 | 0.00 | 0.00 | 0.00 | 82 | 1001.8 |
| 20260507041800 | 26 | 92 | 0.0 | 14.5 | 0.00 | 0.00 | 0.00 | 83 | 1001.7 |
| 20260507040800 | 26 | 80 | 3.2 | 17.7 | 0.00 | 0.00 | 0.00 | 82 | 1001.9 |
| 20260507040258 | 26 | 82 | 6.4 | 17.7 | 0.00 | 0.00 | 0.00 | 82 | 1001.8 |
| 20260507035800 | 26 | 92 | 4.8 | 14.5 | 0.00 | 0.00 | 0.00 | 82 | 1001.8 |
| 20260507035258 | 26 | 93 | 3.2 | 14.5 | 0.00 | 0.00 | 0.00 | 82 | 1001.8 |
| 20260507034800 | 26 | 56 | 4.8 | 14.5 | 0.00 | 0.00 | 0.00 | 82 | 1001.8 |
| 20260507034258 | 26 | 93 | 3.2 | 14.5 | 0.00 | 0.00 | 0.00 | 82 | 1001.8 |
| 20260507033759 | 26 | 93 | 3.2 | 14.5 | 0.00 | 0.00 | 0.00 | 82 | 1001.8 |
| 20260507033256 | 26 | 78 | 3.2 | 11.3 | 0.00 | 0.00 | 0.00 | 82 | 1001.8 |
| 20260507032800 | 26 | 76 | 1.6 | 14.5 | 0.00 | 0.00 | 0.00 | 82 | 1001.8 |
| 20260507032256 | 26 | 73 | 3.2 | 14.5 | 0.00 | 0.00 | 0.00 | 82 | 1001.9 |
| 20260507031257 | 26 | 85 | 0.0 | 9.7 | 0.00 | 0.00 | 0.00 | 81 | 1001.7 |
| 20260507030258 | 26 | 71 | 3.2 | 11.3 | 0.00 | 0.00 | 0.00 | 81 | 1001.7 |
| 20260507025759 | 26 | 76 | 1.6 | 16.1 | 0.00 | 0.00 | 0.00 | 81 | 1001.7 |
| 20260507025256 | 26 | 80 | 8.0 | 17.7 | 0.00 | 0.00 | 0.00 | 81 | 1001.8 |
| 20260507024800 | 26 | 69 | 6.4 | 17.7 | 0.00 | 0.00 | 0.00 | 81 | 1001.8 |
| 20260507024256 | 26 | 69 | 4.8 | 16.1 | 0.00 | 0.00 | 0.00 | 80 | 1001.8 |
| 20260507023759 | 26 | 71 | 6.4 | 16.1 | 0.00 | 0.00 | 0.00 | 80 | 1001.8 |
| 20260507023256 | 26 | 41 | 8.0 | 16.1 | 0.00 | 0.00 | 0.00 | 80 | 1001.8 |
| 20260507022759 | 26 | 100 | 3.2 | 14.5 | 0.00 | 0.00 | 0.00 | 80 | 1001.8 |
| 20260507022255 | 26 | 69 | 3.2 | 19.3 | 0.00 | 0.00 | 0.00 | 80 | 1001.7 |
| 20260507020758 | 26 | 89 | 6.4 | 19.3 | 0.00 | 0.00 | 0.00 | 79 | 1001.6 |
| 20260507020256 | 26 | 76 | 6.4 | 19.3 | 0.00 | 0.00 | 0.00 | 78 | 1001.6 |
| 20260507015256 | 27 | 86 | 3.2 | 17.7 | 0.00 | 0.00 | 0.00 | 77 | 1001.6 |
| 20260507014758 | 27 | 68 | 3.2 | 16.1 | 0.00 | 0.00 | 0.00 | 77 | 1001.6 |
| 20260507013758 | 27 | 93 | 3.2 | 19.3 | 0.00 | 0.00 | 0.00 | 76 | 1001.4 |
| 20260507012755 | 27 | 59 | 3.2 | 22.5 | 0.00 | 0.00 | 0.00 | 75 | 1001.3 |
| 20260507012254 | 27 | 85 | 6.4 | 16.1 | 0.00 | 0.00 | 0.00 | 75 | 1001.2 |
| 20260507011254 | 27 | 65 | 8.0 | 17.7 | 0.00 | 0.00 | 0.00 | 73 | 1001.1 |
| 20260507010757 | 27 | 83 | 3.2 | 17.7 | 0.00 | 0.00 | 0.00 | 73 | 1001.0 |
| 20260507010254 | 27 | 66 | 3.2 | 14.5 | 0.00 | 0.00 | 0.00 | 73 | 1001.0 |
| 20260507005757 | 27 | 65 | 3.2 | 16.1 | 0.00 | 0.00 | 0.00 | 73 | 1001.0 |
| 20260507005252 | 27 | 65 | 4.8 | 17.7 | 0.00 | 0.00 | 0.00 | 74 | 1000.9 |
| 20260507004755 | 28 | 85 | 6.4 | 17.7 | 0.00 | 0.00 | 0.00 | 74 | 1000.8 |
| 20260507004252 | 28 | 66 | 6.4 | 17.7 | 0.00 | 0.00 | 0.00 | 75 | 1000.7 |
| 20260507003754 | 28 | 76 | 4.8 | 16.1 | 0.00 | 0.00 | 0.00 | 76 | 1000.7 |
| 20260507003252 | 28 | 75 | 4.8 | 17.7 | 0.00 | 0.00 | 0.00 | 76 | 1000.7 |
| 20260507002253 | 28 | 97 | 6.4 | 17.7 | 0.00 | 0.00 | 0.00 | 76 | 1000.5 |
| 20260507001757 | 28 | 94 | 6.4 | 17.7 | 0.00 | 0.00 | 0.00 | 76 | 1000.4 |
| 20260507001253 | 28 | 96 | 8.0 | 22.5 | 0.00 | 0.00 | 0.00 | 76 | 1000.3 |
| 20260507000753 | 28 | 97 | 9.7 | 22.5 | 0.00 | 0.00 | 0.00 | 76 | 1000.2 |
| 20260507000251 | 28 | 92 | 12.9 | 22.5 | 0.00 | 0.00 | 0.00 | 75 | 1000.2 |
| 20260506235754 | 28 | 86 | 9.7 | 22.5 | 0.00 | 0.00 | 0.00 | 74 | 1000.2 |
| 20260506235254 | 28 | 65 | 6.4 | 20.9 | 0.00 | 0.00 | 0.00 | 73 | 1000.0 |
| 20260506234755 | 28 | 85 | 4.8 | 19.3 | 0.00 | 0.00 | 0.00 | 73 | 999.9 |
| 20260506234253 | 28 | 89 | 6.4 | 19.3 | 0.00 | 0.00 | 0.00 | 72 | 1000.0 |
| 20260506233755 | 28 | 78 | 4.8 | 19.3 | 0.00 | 0.00 | 0.00 | 71 | 999.9 |
| 20260506233252 | 28 | 75 | 1.6 | 17.7 | 0.00 | 0.00 | 0.00 | 71 | 999.8 |
| 20260506232756 | 29 | 79 | 4.8 | 16.1 | 0.00 | 0.00 | 0.00 | 71 | 999.8 |
| 20260506232252 | 29 | 86 | 8.0 | 16.1 | 0.00 | 0.00 | 0.00 | 70 | 999.7 |
| 20260506231755 | 29 | 75 | 0.0 | 19.3 | 0.00 | 0.00 | 0.00 | 70 | 999.6 |
| 20260506231255 | 29 | 92 | 4.8 | 19.3 | 0.00 | 0.00 | 0.00 | 70 | 999.6 |
| 20260506230754 | 29 | 62 | 6.4 | 16.1 | 0.00 | 0.00 | 0.00 | 69 | 999.6 |
| 20260506230304 | 29 | 63 | 6.4 | 16.1 | 0.00 | 0.00 | 0.00 | 69 | 999.4 |
| 20260506225755 | 29 | 83 | 6.4 | 17.7 | 0.00 | 0.00 | 0.00 | 69 | 999.3 |
| 20260506225251 | 29 | 89 | 6.4 | 22.5 | 0.00 | 0.00 | 0.00 | 68 | 999.3 |
| 20260506224754 | 29 | 61 | 9.7 | 25.7 | 0.00 | 0.00 | 0.00 | 68 | 999.3 |
| 20260506224251 | 30 | 58 | 8.0 | 27.4 | 0.00 | 0.00 | 0.00 | 67 | 999.3 |
| 20260506223250 | 30 | 75 | 6.4 | 22.5 | 0.00 | 0.00 | 0.00 | 66 | 999.3 |
| 20260506222754 | 30 | 71 | 8.0 | 25.7 | 0.00 | 0.00 | 0.00 | 66 | 999.3 |
| 20260506222250 | 30 | 59 | 11.3 | 25.7 | 0.00 | 0.00 | 0.00 | 65 | 999.2 |
| 20260506221756 | 30 | 61 | 3.2 | 19.3 | 0.00 | 0.00 | 0.00 | 65 | 999.1 |
| 20260506221250 | 30 | 63 | 9.7 | 22.5 | 0.00 | 0.00 | 0.00 | 65 | 999.0 |
| 20260506220753 | 30 | 55 | 11.3 | 27.4 | 0.00 | 0.00 | 0.00 | 65 | 998.9 |
| 20260506220251 | 30 | 55 | 9.7 | 27.4 | 0.00 | 0.00 | 0.00 | 64 | 998.9 |
| 20260506215754 | 30 | 65 | 8.0 | 20.9 | 0.00 | 0.00 | 0.00 | 65 | 998.9 |
| 20260506214249 | 31 | 56 | 9.7 | 27.4 | 0.00 | 0.00 | 0.00 | 65 | 998.7 |
| 20260506213753 | 31 | 48 | 8.0 | 20.9 | 0.00 | 0.00 | 0.00 | 65 | 998.6 |
| 20260506212752 | 31 | 62 | 11.3 | 20.9 | 0.00 | 0.00 | 0.00 | 65 | 998.7 |
| 20260506212249 | 31 | 45 | 8.0 | 20.9 | 0.00 | 0.00 | 0.00 | 65 | 998.6 |
| 20260506211753 | 31 | 49 | 8.0 | 25.7 | 0.00 | 0.00 | 0.00 | 64 | 998.5 |
| 20260506211249 | 31 | 55 | 14.5 | 25.7 | 0.00 | 0.00 | 0.00 | 64 | 998.4 |
| 20260506210752 | 31 | 65 | 12.9 | 25.7 | 0.00 | 0.00 | 0.00 | 64 | 998.4 |
| 20260506210249 | 31 | 72 | 16.1 | 25.7 | 0.00 | 0.00 | 0.00 | 63 | 998.4 |
| 20260506205752 | 31 | 68 | 9.7 | 29.0 | 0.00 | 0.00 | 0.00 | 64 | 998.4 |
| 20260506204752 | 32 | 38 | 17.7 | 27.4 | 0.00 | 0.00 | 0.00 | 64 | 998.3 |
| 20260506204249 | 32 | 87 | 8.0 | 32.2 | 0.00 | 0.00 | 0.00 | 64 | 998.4 |
| 20260506203752 | 32 | 55 | 16.1 | 32.2 | 0.00 | 0.00 | 0.00 | 63 | 998.4 |
| 20260506202751 | 32 | 59 | 14.5 | 25.7 | 0.00 | 0.00 | 0.00 | 61 | 998.5 |
| 20260506202248 | 32 | 61 | 12.9 | 25.7 | 0.00 | 0.00 | 0.00 | 61 | 998.4 |
| 20260506201751 | 32 | 28 | 9.7 | 32.2 | 0.00 | 0.00 | 0.00 | 61 | 998.2 |
| 20260506201248 | 32 | 55 | 14.5 | 33.8 | 0.00 | 0.00 | 0.00 | 60 | 998.2 |
| 20260506200752 | 32 | 52 | 16.1 | 33.8 | 0.00 | 0.00 | 0.00 | 59 | 998.4 |
| 20260506200247 | 33 | 38 | 16.1 | 32.2 | 0.00 | 0.00 | 0.00 | 59 | 998.2 |
| 20260506195758 | 33 | 31 | 12.9 | 27.4 | 0.00 | 0.00 | 0.00 | 56 | 998.1 |
| 20260506195249 | 33 | 82 | 12.9 | 25.7 | 0.00 | 0.00 | 0.00 | 51 | 998.3 |
| 20260506194247 | 33 | 103 | 6.4 | 16.1 | 0.00 | 0.00 | 0.00 | 51 | 998.3 |
| 20260506193751 | 33 | 73 | 6.4 | 16.1 | 0.00 | 0.00 | 0.00 | 51 | 998.4 |
| 20260506193247 | 33 | 56 | 6.4 | 14.5 | 0.00 | 0.00 | 0.00 | 52 | 998.3 |
| 20260506192750 | 33 | 76 | 3.2 | 14.5 | 0.00 | 0.00 | 0.00 | 53 | 998.3 |
| 20260506192247 | 33 | 73 | 3.2 | 17.7 | 0.00 | 0.00 | 0.00 | 53 | 998.3 |
| 20260506191752 | 33 | 54 | 6.4 | 19.3 | 0.00 | 0.00 | 0.00 | 54 | 998.4 |
| 20260506191247 | 32 | 41 | 11.3 | 19.3 | 0.00 | 0.00 | 0.00 | 54 | 998.5 |
| 20260506190749 | 32 | 96 | 9.7 | 20.9 | 0.00 | 0.00 | 0.00 | 58 | 998.6 |
| 20260506190246 | 32 | 41 | 11.3 | 24.1 | 0.00 | 0.00 | 0.00 | 58 | 998.5 |
| 20260506185749 | 32 | 44 | 9.7 | 24.1 | 0.00 | 0.00 | 0.00 | 58 | 998.6 |
| 20260506185249 | 32 | 21 | 8.0 | 17.7 | 0.00 | 0.00 | 0.00 | 58 | 998.7 |
| 20260506184752 | 32 | 47 | 8.0 | 27.4 | 0.00 | 0.00 | 0.00 | 57 | 998.8 |
| 20260506183751 | 33 | 59 | 6.4 | 14.5 | 0.00 | 0.00 | 0.00 | 53 | 999.0 |
| 20260506183248 | 33 | 102 | 4.8 | 9.7 | 0.00 | 0.00 | 0.00 | 51 | 998.9 |
| 20260506182751 | 33 | 133 | 4.8 | 19.3 | 0.00 | 0.00 | 0.00 | 51 | 998.9 |
| 20260506181748 | 32 | 51 | 4.8 | 19.3 | 0.00 | 0.00 | 0.00 | 58 | 999.1 |
| 20260506181247 | 32 | 51 | 4.8 | 20.9 | 0.00 | 0.00 | 0.00 | 58 | 999.3 |
| 20260506180757 | 32 | 44 | 6.4 | 20.9 | 0.00 | 0.00 | 0.00 | 58 | 999.4 |
| 20260506180247 | 32 | 21 | 4.8 | 24.1 | 0.00 | 0.00 | 0.00 | 58 | 999.4 |
| 20260506175750 | 33 | 87 | 9.7 | 24.1 | 0.00 | 0.00 | 0.00 | 57 | 999.4 |
| 20260506175247 | 33 | 54 | 4.8 | 17.7 | 0.00 | 0.00 | 0.00 | 57 | 999.5 |
| 20260506174750 | 33 | 51 | 1.6 | 17.7 | 0.00 | 0.00 | 0.00 | 56 | 999.7 |
| 20260506174246 | 33 | 30 | 6.4 | 19.3 | 0.00 | 0.00 | 0.00 | 51 | 999.6 |
| 20260506173750 | 33 | 62 | 1.6 | 19.3 | 0.00 | 0.00 | 0.00 | 54 | 999.7 |
| 20260506173246 | 33 | 38 | 8.0 | 16.1 | 0.00 | 0.00 | 0.00 | 52 | 999.8 |
| 20260506172748 | 33 | 61 | 0.0 | 22.5 | 0.00 | 0.00 | 0.00 | 53 | 999.9 |
| 20260506172246 | 33 | 78 | 6.4 | 22.5 | 0.00 | 0.00 | 0.00 | 49 | 1000.0 |
| 20260506171749 | 34 | 78 | 3.2 | 20.9 | 0.00 | 0.00 | 0.00 | 49 | 1000.0 |
| 20260506171246 | 33 | 120 | 6.4 | 20.9 | 0.00 | 0.00 | 0.00 | 49 | 1000.1 |
| 20260506170246 | 33 | 125 | 4.8 | 16.1 | 0.00 | 0.00 | 0.00 | 50 | 1000.2 |
| 20260506165753 | 33 | 149 | 1.6 | 19.3 | 0.00 | 0.00 | 0.00 | 51 | 1000.0 |
| 20260506165246 | 33 | 131 | 6.4 | 19.3 | 0.00 | 0.00 | 0.00 | 51 | 1000.4 |
| 20260506164749 | 33 | 134 | 8.0 | 17.7 | 0.00 | 0.00 | 0.00 | 52 | 1000.3 |
| 20260506163748 | 32 | 104 | 6.4 | 19.3 | 0.00 | 0.00 | 0.00 | 53 | 1000.5 |
| 20260506162801 | 32 | 110 | 4.8 | 19.3 | 0.00 | 0.00 | 0.00 | 53 | 1000.9 |
| 20260506162244 | 33 | 92 | 6.4 | 19.3 | 0.00 | 0.00 | 0.00 | 52 | 1001.0 |
| 20260506161801 | 33 | 76 | 4.8 | 19.3 | 0.00 | 0.00 | 0.00 | 53 | 1001.2 |
| 20260506160755 | 33 | 89 | 4.8 | 22.5 | 0.00 | 0.00 | 0.00 | 52 | 1001.1 |